Regional Weather Roundup
Issued by NWS

Home | Current Version | Previous Version | Text Only | Print | Product List | Glossary On
Versions: 1 2 3 4 5 6 7 8 9 10 11 12 13 14 15 16 17 18 19 20 21 22 23 24 25 26 27 28 29 30 31 32 33 34 35 36 37 38 39 40 41 42 43 44 45 46 47 48 49 50
000
ASUS43 KMPX 231110
RWRMN
WEATHER ROUNDUP FOR MINNESOTA
NATIONAL WEATHER SERVICE TWIN CITIES/CHANHASSEN MN
600 AM CDT WED APR 23 2014


NOTE: "FAIR" INDICATES FEW OR NO CLOUDS BELOW 12,000 FEET WITH NO
SIGNIFICANT WEATHER AND/OR OBSTRUCTIONS TO VISIBILITY. N/A MEANS
CURRENT SKY AND/OR WEATHER CONDITIONS ARE NOT AVAILABLE.

MNZ060>063-068>070-231200-
   Twin Cities Metro

CITY           SKY/WX    TMP DP  RH WIND       PRES   REMARKS
TWIN CITIES    CLOUDY    43  27  53 SE13      30.09S
ST PAUL        CLOUDY    43  28  55 SE8       30.11R
CRYSTAL        CLOUDY    45  25  45 SE12      30.08R
BLAINE         CLOUDY    45  28  53 SE6       30.09S
EDEN PRAIRIE   CLOUDY    44  27  51 SE13      30.08R
LAKEVILLE      CLOUDY    39  28  65 SE8       30.09R
SOUTH ST PAUL  CLOUDY    45  28  53 SE3       30.10S
LAKE ELMO      FAIR      41  28  60 SE6       30.11R
$$
MNZ001>005-007-008-013>017-022>024-027-028-231200-
   Northwest Minnesota

CITY           SKY/WX    TMP DP  RH WIND       PRES   REMARKS
BEMIDJI        CLOUDY    31  21  66 E5        30.03S WCI  26
HALLOCK        CLOUDY    41  25  52 SE14      29.96F
ROSEAU         CLEAR     37  25  60 SE9       30.02S
WARROAD        CLEAR     34  25  69 SE6       30.03S WCI  29
THIEF RVR FALL CLOUDY    36  25  64 E10       29.99F
CROOKSTON      CLOUDY    43  28  56 SE13      29.96F
FOSSTON        CLOUDY    37  21  52 SE6       29.99F
DETROIT LAKES  CLOUDY    43  28  56 SE13      29.98F
MOORHEAD       CLOUDY    48  30  49 SE13      29.94F
PARK RAPIDS    CLOUDY    39  23  52 SE8       30.02S
$$
MNZ006-009>011-018-025>026-231200-
   North Central Minnesota

CITY           SKY/WX    TMP DP  RH WIND       PRES   REMARKS
BAUDETTE       CLEAR     34  22  61 SE8       30.05F WCI  27
FLAG ISLAND    CLEAR     36  21  55 E6        30.04F
INTL FALLS     CLEAR     25  20  81 E5        30.08S WCI  19
WASKISH        PTCLDY    32  23  69 E6        30.05S WCI  26
BIG FORK       PTCLDY    28  21  74 CALM      30.09R
LONGVILLE      CLOUDY    27  25  93 CALM      30.06S
GRAND RAPIDS   MOCLDY    34  19  55 SE5       30.08R WCI  30
CRANE LAKE     CLEAR     18  16  93 CALM      30.13S
ORR            CLEAR     25  19  80 E5        30.07F WCI  19
COOK           CLEAR     23  21  93 E3        30.10F
$$
MNZ012-019>021-037-231200-
   Northeast Minnesota

CITY           SKY/WX    TMP DP  RH WIND       PRES   REMARKS
DULUTH         PTCLDY    31  23  72 E5        30.10S WCI  26
ELY            CLEAR     21  19  93 CALM      30.12R
HIBBING        PTCLDY    23  20  88 CALM      30.10R
EVELETH        CLEAR     23  21  93 NE3       30.12R
DULUTH HARBOR  PTCLDY    30  27  86 CALM      30.15R
TWO HARBORS    CLEAR     25  19  80 N3        30.12R
SILVER BAY     CLEAR     21  21 100 CALM      30.13R
GRAND MARAIS     N/A     28  24  85 CALM      30.16R
G MARAIS ARPRT CLEAR     18  14  86 W5        30.13S WCI  11
$$
MNZ029>031-032-039>041-046>048-054>057-064-231200-
   West Central Minnesota

CITY           SKY/WX    TMP DP  RH WIND       PRES   REMARKS
FERGUS FALLS   CLOUDY    46  25  42 SE16G22   29.93F
WHEATON        LGT RAIN  45  39  81 SE22      29.95F
MORRIS         LGT RAIN  43  36  75 SE18      29.97F
ALEXANDRIA     CLOUDY    44  27  51 SE14      30.00F
ELBOW LAKE     DRIZZLE   45  30  55 SE20      29.96S
WADENA         CLOUDY    41  27  56 SE9       30.01F
GLENWOOD       DRIZZLE   43  30  61 SE12      30.01F
APPLETON       LGT RAIN  45  37  76 SE14G20   29.97S
BENSON         LGT RAIN  43  36  75 S16G23    29.99F
ORTONVILLE     LGT RAIN  43  37  81 E18       29.92F
MADISON        DRIZZLE   48  41  76 SE20G25   29.94F
WILLMAR        RAIN      45  34  65 SE14      30.03S
$$
MNZ033>034-036-042>043-049>051-058-059-231200-
   Central Minnesota

CITY           SKY/WX    TMP DP  RH WIND       PRES   REMARKS
ST CLOUD       CLOUDY    43  26  51 SE7       30.06S
SAUK CENTRE    PTSUNNY   43  28  55 SE10      30.03F
PAYNESVILLE    CLOUDY    45  26  47 SE9       30.04S
AITKIN         CLOUDY    36  27  69 SE5       30.06S
PINE RIVER     CLOUDY    34  25  69 SE5       30.09R WCI  30
BRAINERD       CLOUDY    40  25  55 SE3       30.07R
STAPLES        CLOUDY    41  25  52 SE8       30.03F
LONG PRAIRIE   FAIR      41  27  56 E7        30.04F
LITTLE FALLS   CLOUDY    41  27  56 SE5       30.06S
LITCHFIELD     CLOUDY    45  30  57 SE10      30.05R
BUFFALO        CLOUDY    44  26  49 SE8       30.09R
MAPLE LAKE     CLOUDY    45  30  55 SE8       30.08R
$$
MNZ037-044-045-052-053-231200-
   East Central Minnesota

CITY           SKY/WX    TMP DP  RH WIND       PRES   REMARKS
PRINCETON      CLOUDY    43  27  52 SE6       30.09R
MORA           CLOUDY    34  25  69 CALM      30.11R
CAMBRIDGE      CLOUDY    43  28  56 SE3       30.08R
RUSH CITY      CLOUDY    36  25  64 SE3       30.10S
MOOSE LAKE     CLOUDY    30  23  74 CALM      30.09S
HINCKLEY       FAIR      32  28  86 CALM      30.10S
CLOQUET        MOCLDY    30  25  80 CALM      30.11R
MCGREGOR       CLOUDY    34  27  75 E6        30.09R WCI  29
$$
MNZ071>073-080-081-089-090-097-098-231200-
   Southwest Minnesota

CITY           SKY/WX    TMP DP  RH WIND       PRES   REMARKS
MONTEVIDEO     CLOUDY    43  37  81 S15       30.00R
GRANITE FALLS  CLOUDY    44  35  70 SE13      30.01S
CANBY          CLOUDY    47  37  69 SE16      29.94F
MARSHALL       CLOUDY    46  34  61 SE16      29.94F
REDWOOD FALLS  LGT RAIN  44  36  73 SE13      30.01R
OLIVIA         LGT RAIN  43  34  70 SE12      30.01S
PIPESTONE      RAIN      48  37  66 SE15G22   29.93F
WINDOM         CLOUDY    46  34  61 SE12      30.00S
WORTHINGTON    CLOUDY    46  30  53 SE16      30.01R
JACKSON        CLOUDY    46  30  53 SE16      29.99F
TRACY          CLOUDY    49  33  54 SE15G22   29.96F
SLAYTON        CLOUDY    46  34  62 SE15      29.98S
$$
MNZ065>067-074>077-082>085-091>093-231200-
   South Central Minnesota

CITY           SKY/WX    TMP DP  RH WIND       PRES   REMARKS
MANKATO        CLOUDY    45  27  49 SE16      30.05S
NEW ULM        RAIN      45  34  65 SE12      30.03R
ST JAMES       CLOUDY    46  34  61 SE12      30.03R
FAIRMONT       CLOUDY    45  30  57 SE13      30.04R
GLENCOE        CLOUDY    45  28  53 E10       30.05R
FARIBAULT      CLOUDY    45  25  45 SE10      30.08S
OWATONNA       CLOUDY    43  28  56 SE16      30.08R
WASECA         CLOUDY    41  27  56 E13       30.07F
ALBERT LEA     CLOUDY    45  30  57 SE15      30.06F
$$
MNZ078>079-086>088-094>096-231200-
   Southeast Minnesota

CITY           SKY/WX    TMP DP  RH WIND       PRES   REMARKS
ROCHESTER      CLOUDY    39  28  64 SE12      30.10S
RED WING       MOCLDY    43  28  56 SE6       30.11R
STANTON        CLOUDY    43  27  52 SE10G16   30.08S
DODGE CENTER   CLOUDY    43  30  61 SE12      30.09R
WINONA         PTCLDY    36  30  80 SE5       30.14R
AUSTIN         CLOUDY    43  30  61 SE13      30.08S
PRESTON        MOCLDY    40  28  63 SE7       30.12S
$$
ABBREVIATIONS USED IN REMARKS
   TC - TEMPERATURES IN CELSIUS
  WCI - WIND CHILL INDEX
   HX - HEAT INDEX
  VSB - VISIBILITY
$$



USA.gov is the U.S. government's official web portal to all federal, state and local government web resources and services.